GFSFLT2_con_lsi_159.txt.gz
Lid_Strength_Index
5 4 5 4 4 4 3 3 3 2 2 2 2 2 2 3 3 3 3 4 4 5 5 5 4 5 6 6 5 6 7 8
5 5 4 4 5 5 3 3 3 3 3 2 3 2 2 3 3 3 4 4 5 5 5 5 5 5 6 5 6 7 8 9
5 5 5 5 4 4 5 3 3 3 3 3 3 2 2 3 4 4 4 5 5 5 6 7 6 6 6 6 6 7 9 10
5 5 4 5 4 4 5 6 3 3 4 4 2 4 5 5 4 4 5 6 7 8 9 9 8 6 8 7 8 9 10 10
6 5 5 4 4 5 4 6 4 4 4 4 4 5 5 5 5 6 7 8 9 10 10 10 9 9 10 10 10 12 12 14
6 5 5 4 4 4 4 3 3 3 4 5 5 5 5 5 6 8 9 9 10 11 12 12 11 11 11 11 11 14 15 15
4 4 4 4 4 3 3 4 4 5 5 5 6 6 7 7 9 9 9 10 10 12 12 13 14 13 11 11 13 15 16 17
6 4 4 4 4 3 4 4 5 5 5 5 6 6 7 9 9 10 10 10 12 12 13 14 13 14 11 11 11 13 15 15
4 4 5 5 4 5 5 6 7 6 6 6 7 7 8 9 10 10 11 12 12 12 14 14 14 14 12 12 11 11 13 14
4 5 6 6 6 7 7 8 7 6 6 7 8 8 8 9 10 11 12 13 14 15 14 15 15 15 12 12 12 12 12 15
6 7 7 7 7 8 9 9 9 8 7 8 9 9 9 10 11 12 13 14 14 15 15 15 15 15 14 12 12 12 10 14
7 7 8 9 9 8 9 9 9 9 9 9 9 10 11 11 12 12 13 14 14 15 14 14 14 15 15 14 13 13 11 11
7 8 9 10 9 9 8 8 9 10 10 11 13 13 15 16 14 14 13 13 13 12 13 15 16 17 16 14 14 14 14 12
8 9 10 10 9 10 8 9 11 13 12 13 14 15 15 15 16 16 14 14 14 15 14 15 15 14 13 12 11 11 11 11
9 9 9 10 10 10 9 10 11 12 13 14 14 15 15 16 16 17 18 16 14 15 14 14 14 13 12 11 11 11 11 11
9 10 10 11 11 12 11 11 12 13 13 13 13 14 14 15 15 16 17 17 17 17 14 14 12 12 12 12 12 11 12 12
11 11 11 12 13 13 11 12 12 13 13 13 13 13 14 14 15 16 16 16 16 16 15 13 13 12 12 12 11 12 12 12
12 12 12 12 13 12 11 12 12 12 12 13 13 13 14 14 15 15 15 14 13 13 13 14 13 12 12 12 11 11 11 12
11 11 11 11 11 10 11 11 12 12 12 12 12 12 13 13 14 14 13 12 12 12 13 13 14 12 12 12 12 12 12 11
11 11 11 11 10 10 10 10 11 11 11 11 12 12 11 10 11 11 11 11 12 13 13 13 12 11 11 11 11 11 11 11

GFSFLT2_con_lsi_162.txt.gz
Lid_Strength_Index
5 5 4 4 4 4 4 4 3 3 2 2 2 2 2 2 2 3 3 3 4 5 5 5 6 7 8 7 9 9 10 11
6 5 5 4 4 4 4 3 3 3 3 3 3 2 2 2 3 3 4 4 5 6 6 6 7 7 7 8 10 11 12 12
7 7 5 5 4 4 4 3 3 3 3 3 3 2 2 3 4 4 4 5 5 5 6 7 7 7 8 9 11 12 13 13
7 7 5 5 4 4 4 4 3 3 3 3 2 2 3 4 5 6 6 6 7 6 6 7 7 7 9 9 10 12 13 14
7 6 6 4 4 4 5 4 3 4 3 3 3 3 5 6 6 8 8 8 8 7 8 8 10 11 11 11 11 14 16 17
8 7 5 4 4 4 4 5 3 4 4 4 4 4 7 9 9 10 10 10 9 9 10 11 12 12 12 13 12 15 16 16
7 8 6 4 4 4 4 4 3 4 7 7 5 6 9 10 10 10 11 10 10 10 11 12 13 14 13 14 15 16 16 16
8 6 4 4 4 3 4 4 4 4 6 6 8 9 10 11 11 10 12 11 12 12 12 13 13 15 13 13 15 15 17 17
7 4 5 5 4 3 4 4 6 7 7 7 9 10 11 11 11 12 11 12 13 13 14 13 13 13 12 12 13 15 15 16
5 5 6 6 6 5 6 7 7 8 8 9 10 10 10 11 11 12 12 13 14 14 15 15 13 12 11 12 13 13 13 15
7 7 8 7 7 6 7 6 7 8 9 10 11 11 11 11 12 13 14 14 15 15 15 15 15 13 13 12 12 12 11 14
7 8 9 9 8 8 7 8 9 9 10 11 11 12 12 12 13 13 14 15 15 15 15 15 15 15 14 14 14 14 11 11
8 8 9 9 9 9 8 9 9 10 11 11 12 13 13 14 14 14 14 14 13 14 15 14 14 15 16 14 13 13 13 12
9 9 9 10 11 11 10 10 11 12 13 13 14 14 14 14 14 14 14 13 14 15 15 15 15 14 12 11 11 11 11 11
9 9 9 11 11 12 12 11 11 12 14 14 15 14 15 14 14 14 16 15 15 15 15 14 12 12 11 11 11 12 12 12
10 11 11 11 11 12 12 11 13 13 14 14 15 15 15 15 15 15 16 16 17 16 14 12 12 12 11 11 11 12 13 13
11 11 11 12 12 12 11 12 12 13 14 14 14 15 15 16 16 16 16 15 15 15 14 13 12 12 11 12 12 13 14 14
12 12 11 12 12 12 11 13 12 13 14 14 14 15 16 16 16 15 14 14 14 13 14 14 14 12 13 14 14 13 13 14
11 12 11 12 11 11 11 12 12 12 13 13 15 15 16 15 14 13 13 12 13 13 13 14 14 13 14 14 14 13 13 13
10 11 10 10 9 10 10 11 11 12 12 14 15 15 14 13 12 12 12 12 13 14 14 13 13 13 14 14 13 13 13 13

GFSFLT2_con_lsi_165.txt.gz
Lid_Strength_Index
8 7 6 5 5 4 4 4 4 3 2 2 2 2 2 2 2 1 2 3 4 5 6 6 8 7 9 9 9 12 13 13
8 8 7 6 6 4 3 3 3 3 3 3 3 3 2 2 2 2 2 4 5 6 6 7 6 8 9 10 13 14 14 14
9 9 7 7 6 4 3 3 3 3 3 3 3 2 2 2 2 2 3 4 5 6 7 8 8 9 11 13 14 15 15 14
9 7 6 6 5 5 4 3 3 3 3 3 3 3 2 2 2 5 4 5 6 7 8 8 9 10 11 11 14 16 15 15
10 8 7 6 6 4 4 3 3 3 3 3 3 2 3 3 4 5 7 7 7 7 8 10 11 12 11 12 13 16 16 16
9 8 8 7 6 5 3 3 3 3 3 3 3 3 3 6 7 7 8 9 9 11 11 11 11 12 14 14 14 16 16 16
8 8 7 7 5 3 3 4 4 4 4 4 3 4 5 7 8 9 9 10 10 12 12 12 13 15 14 13 15 16 16 16
8 8 7 4 4 3 4 5 6 5 4 4 6 5 7 9 10 10 10 10 12 13 13 14 14 15 13 14 14 15 16 16
8 7 5 5 4 4 6 6 7 7 7 6 6 7 8 9 11 11 12 13 13 14 15 15 15 15 15 13 13 15 16 16
5 5 6 6 4 6 7 8 7 8 9 10 11 11 10 11 12 12 13 14 15 15 15 14 14 15 13 13 13 14 13 14
6 7 7 6 5 7 8 8 8 9 10 11 11 11 11 12 13 13 14 14 15 14 14 14 15 13 14 12 13 12 12 13
7 8 8 8 8 7 8 9 9 10 11 12 12 12 12 13 13 12 13 14 13 13 14 15 15 15 15 14 12 11 10 11
9 10 11 10 9 10 9 9 10 12 12 13 13 13 13 14 13 13 13 13 13 13 14 14 15 15 15 13 12 13 13 13
10 11 11 11 11 11 11 11 11 13 14 14 14 14 14 14 15 15 14 14 14 14 14 14 15 13 12 11 11 12 12 12
11 12 12 12 12 12 12 11 12 13 13 13 13 14 14 14 15 15 16 15 14 14 14 13 12 12 11 12 12 13 13 13
11 12 12 12 13 13 12 12 13 14 14 13 14 14 14 15 15 15 15 16 16 16 13 12 12 12 12 12 12 12 14 14
11 12 12 12 13 13 12 13 14 14 14 15 15 14 14 15 15 15 15 15 15 15 13 12 12 12 12 12 12 14 15 16
12 13 13 13 13 13 12 13 14 15 15 15 15 15 15 15 15 15 15 15 14 13 13 14 13 13 14 15 14 15 15 16
11 12 12 12 13 12 12 12 13 14 14 15 15 15 16 15 15 14 13 13 13 13 14 14 14 14 15 15 15 15 15 15
11 11 12 12 11 11 11 11 12 14 15 15 15 15 14 14 13 12 12 13 13 14 14 14 14 14 15 15 15 15 15 15

GFSFLT2_con_lsi_171.txt.gz
Lid_Strength_Index
7 6 6 5 4 4 4 4 3 2 1 1 1 1 1 1 1 1 1 1 1 2 3 3 4 5 6 9 10 11 13 11
8 8 7 6 5 5 4 4 3 2 1 1 2 1 1 1 1 1 1 1 2 4 3 5 6 7 9 10 11 13 13 13
9 8 7 7 6 5 5 4 3 2 2 1 2 1 1 1 1 2 1 2 5 6 7 8 8 9 10 11 11 13 13 13
9 8 8 7 7 6 5 5 4 3 2 2 1 1 1 2 2 2 3 5 7 9 10 11 10 11 12 12 12 13 12 13
10 9 8 7 6 6 6 5 4 3 3 2 2 1 2 2 2 3 5 7 9 10 11 11 11 12 13 12 11 11 13 12
9 8 7 6 6 6 5 5 4 4 3 2 2 2 2 2 3 5 7 8 10 11 11 12 13 13 13 12 12 13 13 13
9 8 7 6 6 5 5 5 4 4 3 2 2 2 2 2 4 7 8 10 10 11 13 13 14 14 14 13 13 13 14 13
6 6 7 7 6 6 6 6 5 4 3 2 2 1 2 3 5 7 8 10 11 11 13 13 13 15 14 14 14 14 14 13
6 6 6 6 6 6 7 7 6 4 2 1 2 2 3 5 6 7 9 11 12 13 15 14 14 15 15 14 14 14 14 13
8 9 8 7 7 6 7 7 5 3 2 2 3 4 5 5 7 9 10 12 14 15 15 16 15 14 14 14 14 14 13 13
9 9 9 9 8 7 7 3 3 2 3 4 5 6 6 8 10 11 13 14 15 16 16 16 16 14 14 14 14 14 13 12
11 11 11 11 9 9 7 4 4 5 6 7 8 8 9 9 11 12 14 16 16 17 16 16 15 15 14 14 13 13 12 11
12 12 12 12 12 10 8 7 7 9 9 9 10 10 11 12 12 13 14 15 15 15 15 15 15 15 14 14 13 12 11 12
14 13 13 13 12 11 10 8 9 9 10 10 11 12 13 14 15 16 14 14 15 14 14 13 13 14 14 13 13 13 13 13
14 14 14 13 12 12 10 10 10 11 12 13 13 13 14 14 14 15 17 15 14 14 14 14 13 13 13 13 13 13 13 12
13 14 15 14 14 13 12 12 12 12 12 12 13 13 13 14 14 14 14 15 16 15 14 13 13 13 13 13 13 12 12 12
13 14 14 15 15 14 12 12 12 12 12 12 12 13 13 13 13 13 14 14 14 14 13 12 12 12 13 13 12 12 13 13
14 16 14 14 14 13 13 13 13 13 13 14 13 13 13 13 13 13 13 13 12 11 11 12 11 11 11 12 12 12 12 12
13 14 13 14 14 13 13 13 13 13 13 13 13 12 12 12 12 12 11 10 10 10 11 11 13 11 12 12 12 12 12 12
14 14 14 14 13 13 13 13 12 12 12 12 12 12 12 12 11 10 10 10 11 11 11 12 13 10 11 11 11 11 11 11

GFSFLT2_con_lsi_174.txt.gz
Lid_Strength_Index
5 5 5 5 5 4 3 2 2 1 0 0 0 0 0 0 0 0 0 1 1 1 1 3 4 6 4 6 5 9 10 10
6 5 4 4 4 5 4 3 2 2 1 1 1 1 1 1 0 0 0 0 1 1 1 1 2 4 6 8 8 10 10 10
8 7 7 5 4 4 4 3 3 2 1 1 1 0 0 0 0 0 0 0 1 3 3 3 4 6 7 9 9 11 11 12
9 8 8 6 6 5 4 3 3 2 2 1 1 1 1 1 1 0 0 3 5 6 7 8 8 7 9 10 10 11 12 12
9 9 8 7 6 5 5 4 3 3 2 1 1 1 1 1 1 1 4 6 7 9 9 9 10 9 10 11 11 11 11 11
9 8 7 6 6 5 4 3 3 3 3 2 1 1 1 1 1 3 6 8 9 10 10 10 10 10 10 11 11 10 10 10
8 6 5 5 6 6 4 3 3 3 3 2 1 1 2 1 2 4 6 8 8 9 9 10 10 9 11 11 10 10 10 10
6 5 5 5 5 5 6 5 3 3 3 2 1 1 1 2 3 5 7 8 9 9 11 10 10 11 11 12 11 10 11 11
7 8 8 8 5 4 5 6 5 3 2 2 1 1 1 4 6 6 7 9 9 11 12 12 11 12 13 13 13 12 13 13
9 10 10 8 8 8 7 6 4 3 2 2 2 5 6 6 7 8 8 9 11 13 14 13 12 12 12 13 14 13 12 12
11 11 11 10 9 8 8 7 5 3 3 4 6 7 8 9 10 11 11 11 13 13 14 14 14 14 13 13 14 13 13 13
12 12 11 11 9 8 6 3 5 4 7 7 9 9 10 10 10 10 11 12 13 14 14 15 14 14 14 12 13 13 14 14
14 14 11 11 9 8 5 6 6 8 8 8 10 10 11 12 12 13 13 12 12 14 15 15 14 15 15 14 14 13 13 12
14 14 11 11 10 9 7 6 6 8 9 10 11 12 12 13 14 15 14 13 14 14 13 13 14 14 15 15 15 14 13 12
14 13 11 11 11 10 9 8 8 10 11 11 12 12 12 13 14 14 16 15 14 14 15 15 15 16 16 14 14 13 13 11
13 13 11 11 11 11 10 10 10 10 11 12 12 13 13 13 13 13 14 15 15 14 15 15 16 15 14 12 12 11 10 10
14 14 14 12 12 11 10 11 12 12 12 12 12 12 13 13 13 13 13 14 15 15 15 15 13 13 12 12 12 10 10 10
16 16 15 14 13 12 11 12 12 12 12 13 13 13 13 13 13 13 13 13 13 13 13 12 11 10 10 10 9 9 10 10
15 15 14 13 13 12 12 12 12 13 13 13 13 13 13 12 12 13 12 11 11 10 10 10 13 9 10 10 10 9 10 10
14 15 14 13 12 12 12 12 12 12 12 12 11 11 11 11 11 9 8 9 9 10 10 11 13 9 9 9 9 9 9 9